| time (UTC) | temp C | wind direction | speed KPH | gust KPH | rain 1hr cm | rain 24hr cm | rain mn cm | humidity % | barometer mb |
| 20260508064955 | 11 | 267 | 0.0 | 0.0 | 0.00 | 2.03 | 0.00 | 93 | 1014.9 |
| 20260508064455 | 11 | 267 | 0.0 | 0.0 | 0.00 | 2.03 | 0.00 | 93 | 1014.8 |
| 20260508063955 | 11 | 267 | 0.0 | 0.0 | 0.00 | 2.03 | 0.00 | 93 | 1014.9 |
| 20260508063455 | 11 | 267 | 0.0 | 0.0 | 0.00 | 2.03 | 0.00 | 93 | 1014.8 |
| 20260508062455 | 11 | 267 | 0.0 | 0.0 | 0.00 | 2.03 | 0.00 | 92 | 1014.9 |
| 20260508061955 | 11 | 267 | 0.0 | 0.0 | 0.00 | 2.03 | 0.00 | 92 | 1014.9 |
| 20260508061455 | 11 | 267 | 0.0 | 1.6 | 0.00 | 2.03 | 0.00 | 92 | 1014.9 |
| 20260508060955 | 11 | 267 | 0.0 | 3.2 | 0.00 | 2.03 | 0.00 | 92 | 1014.9 |
| 20260508060455 | 11 | 267 | 1.6 | 3.2 | 0.00 | 2.03 | 0.00 | 92 | 1015.0 |
| 20260508055958 | 11 | 267 | 1.6 | 3.2 | 0.00 | 2.03 | 0.00 | 92 | 1014.7 |
| 20260508055455 | 11 | 267 | 1.6 | 3.2 | 0.00 | 2.44 | 0.00 | 92 | 1014.6 |
| 20260508054955 | 11 | 267 | 0.0 | 3.2 | 0.00 | 2.44 | 0.00 | 92 | 1014.5 |
| 20260508054455 | 11 | 267 | 1.6 | 3.2 | 0.00 | 2.44 | 0.00 | 92 | 1014.8 |
| 20260508053956 | 11 | 267 | 1.6 | 3.2 | 0.00 | 2.44 | 0.00 | 92 | 1014.6 |
| 20260508053455 | 11 | 267 | 0.0 | 0.0 | 0.00 | 2.44 | 0.00 | 92 | 1014.7 |
| 20260508052955 | 11 | 267 | 0.0 | 0.0 | 0.00 | 2.44 | 0.00 | 92 | 1014.3 |
| 20260508052455 | 11 | 267 | 0.0 | 0.0 | 0.00 | 2.44 | 0.00 | 92 | 1014.4 |
| 20260508051455 | 11 | 267 | 0.0 | 0.0 | 0.00 | 2.44 | 0.00 | 92 | 1014.4 |
| 20260508050955 | 11 | 267 | 0.0 | 0.0 | 0.00 | 2.44 | 0.00 | 92 | 1014.5 |
| 20260508045958 | 11 | 267 | 0.0 | 1.6 | 0.00 | 2.44 | 0.00 | 92 | 1014.5 |
| 20260508045455 | 11 | 267 | 0.0 | 1.6 | 0.00 | 2.97 | 0.00 | 92 | 1014.4 |
| 20260508044955 | 11 | 267 | 0.0 | 1.6 | 0.00 | 2.97 | 0.00 | 92 | 1014.5 |
| 20260508043955 | 12 | 267 | 1.6 | 1.6 | 0.00 | 2.97 | 0.00 | 92 | 1014.4 |
| 20260508043455 | 12 | 267 | 0.0 | 3.2 | 0.00 | 2.97 | 0.00 | 92 | 1014.5 |
| 20260508042955 | 12 | 267 | 1.6 | 3.2 | 0.00 | 2.97 | 0.00 | 92 | 1014.5 |
| 20260508042455 | 12 | 267 | 1.6 | 3.2 | 0.00 | 2.97 | 0.00 | 92 | 1014.5 |
| 20260508041955 | 12 | 267 | 0.0 | 4.8 | 0.00 | 2.97 | 0.00 | 92 | 1014.4 |
| 20260508041455 | 12 | 267 | 1.6 | 4.8 | 0.00 | 2.97 | 0.00 | 92 | 1014.6 |
| 20260508040956 | 12 | 267 | 3.2 | 6.4 | 0.00 | 2.97 | 0.00 | 92 | 1014.5 |
| 20260508040456 | 12 | 267 | 1.6 | 6.4 | 0.00 | 2.97 | 0.00 | 92 | 1014.3 |
| 20260508035458 | 12 | 254 | 3.2 | 6.4 | 0.00 | 2.97 | 2.97 | 92 | 1014.5 |
| 20260508034958 | 12 | 284 | 1.6 | 4.8 | 0.00 | 2.97 | 2.97 | 91 | 1014.2 |
| 20260508034458 | 12 | 284 | 3.2 | 4.8 | 0.00 | 2.97 | 2.97 | 91 | 1014.2 |
| 20260508033958 | 12 | 340 | 1.6 | 4.8 | 0.00 | 2.97 | 2.97 | 91 | 1014.0 |
| 20260508032959 | 12 | 342 | 1.6 | 6.4 | 0.00 | 2.97 | 2.97 | 91 | 1013.8 |
| 20260508032458 | 12 | 321 | 1.6 | 6.4 | 0.00 | 2.97 | 2.97 | 91 | 1013.9 |
| 20260508031458 | 12 | 324 | 0.0 | 0.0 | 0.00 | 2.97 | 2.97 | 91 | 1013.9 |
| 20260508030958 | 12 | 324 | 0.0 | 0.0 | 0.00 | 2.97 | 2.97 | 91 | 1013.6 |
| 20260508030458 | 12 | 324 | 0.0 | 0.0 | 0.00 | 2.97 | 2.97 | 91 | 1013.5 |
| 20260508025458 | 12 | 324 | 0.0 | 0.0 | 0.00 | 2.97 | 2.97 | 91 | 1013.5 |
| 20260508024458 | 12 | 324 | 0.0 | 3.2 | 0.00 | 2.97 | 2.97 | 91 | 1013.6 |
| 20260508023958 | 12 | 324 | 1.6 | 4.8 | 0.00 | 2.97 | 2.97 | 91 | 1013.6 |
| 20260508022958 | 11 | 324 | 1.6 | 4.8 | 0.00 | 2.97 | 2.97 | 91 | 1013.5 |
| 20260508021958 | 11 | 324 | 1.6 | 3.2 | 0.00 | 2.97 | 2.97 | 91 | 1013.3 |
| 20260508021458 | 11 | 324 | 1.6 | 3.2 | 0.00 | 2.97 | 2.97 | 91 | 1013.5 |
| 20260508020958 | 11 | 324 | 0.0 | 1.6 | 0.03 | 2.97 | 2.97 | 91 | 1013.4 |
| 20260508020458 | 11 | 324 | 0.0 | 3.2 | 0.03 | 2.97 | 2.97 | 90 | 1013.3 |
| 20260508014958 | 11 | 330 | 4.8 | 8.0 | 0.03 | 2.97 | 2.97 | 90 | 1013.1 |
| 20260508014458 | 11 | 323 | 1.6 | 8.0 | 0.03 | 2.97 | 2.97 | 90 | 1013.2 |
| 20260508013958 | 11 | 34 | 1.6 | 8.0 | 0.03 | 2.97 | 2.97 | 90 | 1013.1 |
| 20260508013458 | 11 | 13 | 3.2 | 6.4 | 0.03 | 2.97 | 2.97 | 90 | 1013.1 |
| 20260508012958 | 11 | 339 | 1.6 | 8.0 | 0.03 | 2.97 | 2.97 | 90 | 1012.8 |
| 20260508012458 | 11 | 5 | 1.6 | 9.7 | 0.03 | 2.97 | 2.97 | 90 | 1012.6 |
| 20260508011958 | 11 | 5 | 4.8 | 9.7 | 0.03 | 2.97 | 2.97 | 90 | 1012.4 |
| 20260508011458 | 12 | 360 | 4.8 | 8.0 | 0.03 | 2.97 | 2.97 | 90 | 1012.1 |
| 20260508010958 | 12 | 346 | 3.2 | 8.0 | 0.00 | 2.95 | 2.95 | 90 | 1012.2 |
| 20260508010001 | 12 | 345 | 6.4 | 12.9 | 0.00 | 2.95 | 2.95 | 89 | 1012.6 |
| 20260508005458 | 12 | 321 | 4.8 | 8.0 | 0.00 | 2.95 | 2.95 | 89 | 1012.8 |
| 20260508004958 | 12 | 360 | 4.8 | 8.0 | 0.00 | 2.95 | 2.95 | 88 | 1012.1 |
| 20260508004458 | 12 | 41 | 4.8 | 8.0 | 0.00 | 2.95 | 2.95 | 88 | 1012.2 |
| 20260508003958 | 12 | 360 | 4.8 | 8.0 | 0.00 | 2.95 | 2.95 | 88 | 1012.4 |
| 20260508003458 | 12 | 333 | 1.6 | 9.7 | 0.00 | 2.95 | 2.95 | 87 | 1012.8 |
| 20260508002958 | 12 | 351 | 6.4 | 9.7 | 0.00 | 2.95 | 2.95 | 87 | 1012.3 |
| 20260508001959 | 12 | 46 | 6.4 | 12.9 | 0.00 | 2.95 | 2.95 | 87 | 1011.5 |
| 20260508001458 | 12 | 65 | 4.8 | 9.7 | 0.00 | 2.95 | 2.95 | 87 | 1011.6 |
| 20260508000958 | 12 | 42 | 3.2 | 9.7 | 0.00 | 2.95 | 2.95 | 88 | 1011.7 |
| 20260508000458 | 12 | 19 | 4.8 | 9.7 | 0.00 | 2.95 | 2.95 | 87 | 1011.6 |
| 20260508000001 | 12 | 350 | 6.4 | 12.9 | 0.00 | 2.95 | 2.95 | 87 | 1011.4 |
| 20260507235458 | 12 | 21 | 6.4 | 14.5 | 0.00 | 2.95 | 2.95 | 87 | 1011.3 |
| 20260507234959 | 12 | 65 | 4.8 | 14.5 | 0.00 | 2.95 | 2.95 | 87 | 1011.2 |
| 20260507234458 | 12 | 360 | 4.8 | 14.5 | 0.00 | 2.95 | 2.95 | 87 | 1011.4 |
| 20260507233958 | 12 | 24 | 6.4 | 12.9 | 0.00 | 2.95 | 2.95 | 87 | 1011.3 |
| 20260507233458 | 12 | 31 | 6.4 | 16.1 | 0.00 | 2.95 | 2.95 | 87 | 1011.3 |
| 20260507232958 | 12 | 29 | 6.4 | 17.7 | 0.00 | 2.95 | 2.95 | 87 | 1011.3 |
| 20260507232458 | 12 | 330 | 6.4 | 16.1 | 0.00 | 2.95 | 2.95 | 87 | 1011.3 |
| 20260507231958 | 12 | 338 | 6.4 | 14.5 | 0.00 | 2.95 | 2.95 | 87 | 1011.3 |
| 20260507231459 | 12 | 346 | 8.0 | 14.5 | 0.00 | 2.95 | 2.95 | 88 | 1011.3 |
| 20260507230458 | 12 | 342 | 9.7 | 16.1 | 0.00 | 2.95 | 2.95 | 88 | 1011.2 |
| 20260507230000 | 12 | 46 | 8.0 | 14.5 | 0.00 | 2.95 | 2.95 | 88 | 1011.2 |
| 20260507225457 | 12 | 344 | 6.4 | 16.1 | 0.00 | 2.95 | 2.95 | 88 | 1011.2 |
| 20260507224957 | 12 | 5 | 8.0 | 16.1 | 0.00 | 2.95 | 2.95 | 88 | 1010.9 |
| 20260507224457 | 12 | 40 | 4.8 | 14.5 | 0.00 | 2.95 | 2.95 | 88 | 1010.9 |
| 20260507223957 | 12 | 30 | 6.4 | 19.3 | 0.00 | 2.95 | 2.95 | 88 | 1010.6 |
| 20260507223458 | 12 | 53 | 8.0 | 19.3 | 0.00 | 2.95 | 2.95 | 89 | 1010.7 |
| 20260507222957 | 12 | 21 | 11.3 | 20.9 | 0.00 | 2.95 | 2.95 | 89 | 1010.7 |
| 20260507222457 | 12 | 333 | 8.0 | 20.9 | 0.00 | 2.95 | 2.95 | 89 | 1010.8 |
| 20260507221457 | 12 | 349 | 9.7 | 20.9 | 0.00 | 2.95 | 2.95 | 89 | 1010.7 |
| 20260507220957 | 12 | 342 | 11.3 | 20.9 | 0.00 | 2.95 | 2.95 | 89 | 1010.9 |
| 20260507220001 | 12 | 355 | 12.9 | 22.5 | 0.00 | 2.95 | 2.95 | 89 | 1010.8 |
| 20260507215457 | 12 | 10 | 8.0 | 25.7 | 0.00 | 2.95 | 2.95 | 89 | 1010.8 |
| 20260507214957 | 12 | 326 | 14.5 | 25.7 | 0.00 | 2.95 | 2.95 | 89 | 1010.6 |
| 20260507214457 | 13 | 336 | 8.0 | 20.9 | 0.00 | 2.95 | 2.95 | 90 | 1010.5 |
| 20260507213957 | 13 | 44 | 14.5 | 20.9 | 0.00 | 2.95 | 2.95 | 89 | 1010.3 |
| 20260507213457 | 13 | 40 | 9.7 | 22.5 | 0.00 | 2.95 | 2.95 | 89 | 1010.2 |
| 20260507212957 | 13 | 19 | 11.3 | 22.5 | 0.00 | 2.95 | 2.95 | 89 | 1010.1 |
| 20260507212457 | 13 | 335 | 11.3 | 22.5 | 0.00 | 2.95 | 2.95 | 88 | 1009.9 |
| 20260507211957 | 13 | 355 | 11.3 | 22.5 | 0.00 | 2.95 | 2.95 | 88 | 1010.0 |
| 20260507211457 | 13 | 25 | 14.5 | 20.9 | 0.00 | 2.95 | 2.95 | 88 | 1009.9 |
| 20260507210957 | 14 | 27 | 8.0 | 17.7 | 0.00 | 2.95 | 2.95 | 89 | 1009.8 |
| 20260507210459 | 14 | 331 | 8.0 | 17.7 | 0.00 | 2.95 | 2.95 | 88 | 1009.7 |
| 20260507204957 | 15 | 24 | 11.3 | 19.3 | 0.00 | 2.95 | 2.95 | 89 | 1009.5 |
| 20260507204457 | 15 | 321 | 8.0 | 19.3 | 0.00 | 2.95 | 2.95 | 89 | 1009.5 |
| 20260507203957 | 15 | 340 | 12.9 | 19.3 | 0.00 | 2.95 | 2.95 | 88 | 1009.4 |
| 20260507203457 | 15 | 26 | 6.4 | 22.5 | 0.00 | 2.95 | 2.95 | 89 | 1009.4 |
| 20260507202957 | 15 | 20 | 12.9 | 22.5 | 0.00 | 2.95 | 2.95 | 89 | 1009.4 |
| 20260507201957 | 15 | 342 | 11.3 | 25.7 | 0.00 | 2.95 | 2.95 | 89 | 1009.4 |
| 20260507201457 | 15 | 330 | 9.7 | 25.7 | 0.00 | 2.95 | 2.95 | 90 | 1009.2 |
| 20260507200957 | 15 | 242 | 11.3 | 22.5 | 0.00 | 2.95 | 2.95 | 89 | 1009.5 |
| 20260507200457 | 15 | 355 | 14.5 | 22.5 | 0.00 | 2.95 | 2.95 | 89 | 1009.5 |
| 20260507200000 | 15 | 69 | 6.4 | 25.7 | 0.00 | 2.95 | 2.95 | 90 | 1009.5 |
| 20260507194458 | 16 | 335 | 16.1 | 25.7 | 0.00 | 2.95 | 2.95 | 88 | 1009.2 |
| 20260507193957 | 16 | 313 | 8.0 | 19.3 | 0.00 | 2.95 | 2.95 | 88 | 1009.4 |
| 20260507193457 | 16 | 311 | 12.9 | 24.1 | 0.00 | 2.95 | 2.95 | 87 | 1009.2 |
| 20260507191957 | 18 | 336 | 12.9 | 22.5 | 0.00 | 2.95 | 2.95 | 82 | 1009.0 |
| 20260507190957 | 22 | 276 | 12.9 | 19.3 | 0.00 | 2.95 | 2.95 | 79 | 1008.3 |
| 20260507190457 | 22 | 289 | 3.2 | 11.3 | 0.00 | 2.95 | 2.95 | 83 | 1007.9 |
| 20260507184957 | 22 | 246 | 8.0 | 12.9 | 0.00 | 2.95 | 2.95 | 86 | 1008.5 |
| 20260507184457 | 22 | 200 | 6.4 | 11.3 | 0.00 | 2.95 | 2.95 | 88 | 1008.8 |
| 20260507183957 | 22 | 184 | 3.2 | 8.0 | 0.00 | 2.95 | 2.95 | 89 | 1009.0 |
| 20260507183457 | 21 | 278 | 3.2 | 11.3 | 0.00 | 2.95 | 2.95 | 90 | 1008.8 |
| 20260507182958 | 21 | 205 | 3.2 | 11.3 | 0.00 | 2.95 | 2.95 | 91 | 1008.9 |
| 20260507182457 | 21 | 240 | 4.8 | 9.7 | 0.03 | 2.95 | 2.95 | 91 | 1008.9 |
| 20260507181957 | 21 | 233 | 4.8 | 9.7 | 0.03 | 2.95 | 2.95 | 91 | 1008.9 |
| 20260507181458 | 21 | 225 | 3.2 | 8.0 | 0.03 | 2.95 | 2.95 | 91 | 1009.0 |
| 20260507180958 | 21 | 161 | 4.8 | 17.7 | 0.03 | 2.95 | 2.95 | 90 | 1009.1 |
| 20260507180459 | 21 | 277 | 6.4 | 17.7 | 0.03 | 2.95 | 2.95 | 90 | 1009.2 |
| 20260507180000 | 21 | 266 | 6.4 | 17.7 | 0.03 | 2.95 | 2.95 | 90 | 1009.1 |
| 20260507175457 | 21 | 249 | 4.8 | 11.3 | 0.03 | 2.95 | 2.95 | 90 | 1009.0 |
| 20260507174959 | 21 | 221 | 4.8 | 11.3 | 0.03 | 2.95 | 2.95 | 91 | 1008.9 |
| 20260507174457 | 21 | 249 | 3.2 | 6.4 | 0.03 | 2.95 | 2.95 | 92 | 1008.8 |
| 20260507173958 | 21 | 234 | 3.2 | 9.7 | 0.03 | 2.95 | 2.95 | 92 | 1008.8 |
| 20260507173457 | 21 | 225 | 6.4 | 9.7 | 0.03 | 2.95 | 2.95 | 91 | 1008.7 |
| 20260507172957 | 21 | 123 | 4.8 | 8.0 | 0.03 | 2.95 | 2.95 | 92 | 1008.4 |
| 20260507171958 | 20 | 205 | 4.8 | 9.7 | 0.03 | 2.92 | 2.92 | 92 | 1009.1 |
| 20260507171457 | 20 | 184 | 4.8 | 8.0 | 0.03 | 2.92 | 2.92 | 93 | 1009.1 |
| 20260507170457 | 20 | 182 | 3.2 | 4.8 | 0.03 | 2.92 | 2.92 | 93 | 1009.3 |
| 20260507170000 | 20 | 182 | 1.6 | 4.8 | 0.03 | 2.92 | 2.92 | 93 | 1009.4 |
| 20260507164457 | 20 | 198 | 3.2 | 11.3 | 0.05 | 2.92 | 2.92 | 92 | 1010.0 |
| 20260507163957 | 20 | 239 | 3.2 | 11.3 | 0.05 | 2.92 | 2.92 | 92 | 1010.1 |
| 20260507163456 | 20 | 235 | 3.2 | 9.7 | 0.05 | 2.92 | 2.92 | 92 | 1010.1 |
| 20260507162957 | 20 | 160 | 4.8 | 17.7 | 0.05 | 2.92 | 2.92 | 92 | 1010.1 |
| 20260507162457 | 20 | 286 | 3.2 | 17.7 | 0.08 | 2.92 | 2.92 | 92 | 1010.2 |
| 20260507161457 | 20 | 198 | 4.8 | 8.0 | 0.08 | 2.90 | 2.90 | 93 | 1010.3 |
| 20260507160957 | 20 | 234 | 3.2 | 11.3 | 0.10 | 2.90 | 2.90 | 93 | 1010.3 |
| 20260507160457 | 20 | 232 | 1.6 | 6.4 | 0.13 | 2.90 | 2.90 | 93 | 1010.2 |
| 20260507160000 | 20 | 183 | 4.8 | 8.0 | 0.18 | 2.90 | 2.90 | 93 | 1010.1 |
| 20260507155457 | 20 | 74 | 0.0 | 6.4 | 0.20 | 2.90 | 2.90 | 93 | 1010.0 |
| 20260507154957 | 20 | 139 | 3.2 | 6.4 | 0.23 | 2.87 | 2.87 | 93 | 1010.1 |
| 20260507154457 | 20 | 173 | 3.2 | 8.0 | 0.28 | 2.87 | 2.87 | 93 | 1010.1 |
| 20260507153457 | 20 | 190 | 1.6 | 4.8 | 0.46 | 2.87 | 2.87 | 93 | 1010.1 |
| 20260507152957 | 20 | 213 | 0.0 | 3.2 | 0.56 | 2.87 | 2.87 | 93 | 1010.2 |
| 20260507151957 | 19 | 192 | 1.6 | 4.8 | 0.64 | 2.84 | 2.84 | 93 | 1010.4 |
| 20260507151457 | 19 | 265 | 3.2 | 8.0 | 0.66 | 2.82 | 2.82 | 93 | 1010.6 |
| 20260507150958 | 19 | 273 | 1.6 | 8.0 | 0.66 | 2.79 | 2.79 | 93 | 1010.5 |
| 20260507150457 | 19 | 267 | 3.2 | 9.7 | 0.64 | 2.77 | 2.77 | 93 | 1010.7 |
| 20260507145959 | 19 | 257 | 3.2 | 6.4 | 0.61 | 2.72 | 2.72 | 93 | 1010.9 |
| 20260507144956 | 19 | 250 | 4.8 | 11.3 | 0.53 | 2.64 | 2.64 | 93 | 1010.9 |
| 20260507144456 | 19 | 273 | 6.4 | 11.3 | 0.51 | 2.59 | 2.59 | 93 | 1011.0 |
| 20260507143956 | 19 | 257 | 4.8 | 12.9 | 0.41 | 2.49 | 2.49 | 92 | 1010.9 |
| 20260507143456 | 20 | 221 | 4.8 | 11.3 | 0.36 | 2.41 | 2.41 | 92 | 1011.0 |
| 20260507142956 | 20 | 234 | 4.8 | 9.7 | 0.28 | 2.31 | 2.31 | 92 | 1010.9 |
| 20260507142456 | 20 | 200 | 4.8 | 14.5 | 0.23 | 2.26 | 2.26 | 92 | 1011.0 |
| 20260507141956 | 20 | 221 | 3.2 | 14.5 | 0.18 | 2.21 | 2.21 | 92 | 1010.9 |
| 20260507141456 | 20 | 223 | 4.8 | 11.3 | 0.13 | 2.16 | 2.16 | 91 | 1011.0 |
| 20260507140957 | 20 | 248 | 6.4 | 16.1 | 0.10 | 2.13 | 2.13 | 91 | 1010.9 |
| 20260507140456 | 20 | 238 | 8.0 | 16.1 | 0.10 | 2.13 | 2.13 | 91 | 1010.9 |
| 20260507135959 | 20 | 236 | 3.2 | 12.9 | 0.08 | 2.11 | 2.11 | 91 | 1010.8 |
| 20260507135456 | 20 | 251 | 4.8 | 17.7 | 0.08 | 2.11 | 2.11 | 91 | 1010.7 |
| 20260507134956 | 20 | 170 | 3.2 | 16.1 | 0.08 | 2.11 | 2.11 | 91 | 1010.7 |
| 20260507134456 | 20 | 248 | 8.0 | 16.1 | 0.05 | 2.08 | 2.08 | 91 | 1010.7 |
| 20260507133958 | 20 | 223 | 8.0 | 16.1 | 0.05 | 2.08 | 2.08 | 91 | 1010.8 |
| 20260507133456 | 20 | 240 | 6.4 | 12.9 | 0.03 | 2.06 | 2.06 | 91 | 1010.9 |
| 20260507132956 | 20 | 202 | 3.2 | 9.7 | 0.00 | 2.03 | 2.03 | 92 | 1010.5 |
| 20260507131956 | 20 | 312 | 3.2 | 9.7 | 0.00 | 2.03 | 2.03 | 92 | 1010.4 |
| 20260507130956 | 20 | 155 | 4.8 | 9.7 | 0.00 | 2.03 | 2.03 | 92 | 1010.5 |
| 20260507130456 | 20 | 155 | 4.8 | 11.3 | 0.00 | 2.03 | 2.03 | 92 | 1010.4 |
| 20260507125959 | 20 | 237 | 4.8 | 11.3 | 0.00 | 2.03 | 2.03 | 92 | 1010.5 |
| 20260507124956 | 20 | 192 | 8.0 | 12.9 | 0.00 | 2.03 | 2.03 | 93 | 1010.5 |
| 20260507123455 | 19 | 205 | 4.8 | 17.7 | 0.03 | 2.03 | 2.03 | 93 | 1010.8 |
| 20260507122956 | 19 | 196 | 9.7 | 17.7 | 0.03 | 2.03 | 2.03 | 93 | 1010.9 |
| 20260507122457 | 19 | 180 | 8.0 | 14.5 | 0.03 | 2.03 | 2.03 | 93 | 1011.1 |
| 20260507121955 | 19 | 157 | 8.0 | 12.9 | 0.03 | 2.03 | 2.03 | 93 | 1011.2 |
| 20260507121456 | 19 | 159 | 8.0 | 12.9 | 0.03 | 2.03 | 2.03 | 93 | 1011.2 |
| 20260507120957 | 19 | 239 | 4.8 | 14.5 | 0.03 | 2.03 | 2.03 | 93 | 1011.3 |
| 20260507120456 | 19 | 190 | 6.4 | 14.5 | 0.03 | 2.03 | 2.03 | 94 | 1011.2 |
| 20260507115959 | 19 | 185 | 6.4 | 17.7 | 0.03 | 2.03 | 2.03 | 94 | 1011.3 |
| 20260507115455 | 19 | 187 | 4.8 | 17.7 | 0.03 | 2.03 | 2.03 | 94 | 1011.5 |
| 20260507114956 | 19 | 260 | 4.8 | 12.9 | 0.05 | 2.03 | 2.03 | 94 | 1011.5 |
| 20260507114456 | 19 | 203 | 6.4 | 12.9 | 0.08 | 2.03 | 2.03 | 94 | 1011.4 |
| 20260507113956 | 19 | 186 | 4.8 | 12.9 | 0.10 | 2.03 | 2.03 | 94 | 1011.6 |
| 20260507113458 | 19 | 182 | 3.2 | 8.0 | 0.10 | 2.01 | 2.01 | 94 | 1011.5 |
| 20260507112956 | 19 | 190 | 3.2 | 12.9 | 0.10 | 2.01 | 2.01 | 94 | 1011.5 |
| 20260507112455 | 18 | 167 | 8.0 | 12.9 | 0.13 | 2.01 | 2.01 | 94 | 1011.5 |
| 20260507111956 | 18 | 207 | 3.2 | 11.3 | 0.15 | 2.01 | 2.01 | 94 | 1011.7 |
| 20260507111455 | 18 | 213 | 1.6 | 6.4 | 0.15 | 2.01 | 2.01 | 94 | 1011.7 |
| 20260507110956 | 18 | 185 | 3.2 | 8.0 | 0.18 | 2.01 | 2.01 | 94 | 1011.6 |
| 20260507110456 | 18 | 191 | 1.6 | 3.2 | 0.20 | 2.01 | 2.01 | 94 | 1011.6 |
| 20260507105959 | 18 | 191 | 0.0 | 4.8 | 0.20 | 2.01 | 2.01 | 94 | 1011.4 |
| 20260507105455 | 18 | 191 | 1.6 | 6.4 | 0.25 | 2.01 | 2.01 | 94 | 1011.3 |
| 20260507104956 | 18 | 154 | 1.6 | 4.8 | 0.23 | 1.98 | 1.98 | 94 | 1011.3 |
| 20260507104456 | 18 | 196 | 3.2 | 6.4 | 0.23 | 1.96 | 1.96 | 93 | 1011.4 |
| 20260507103956 | 18 | 192 | 1.6 | 6.4 | 0.23 | 1.93 | 1.93 | 93 | 1011.4 |
| 20260507103456 | 18 | 290 | 0.0 | 6.4 | 0.23 | 1.91 | 1.91 | 93 | 1011.3 |
| 20260507102956 | 18 | 290 | 0.0 | 6.4 | 0.23 | 1.91 | 1.91 | 93 | 1011.3 |
| 20260507101956 | 18 | 229 | 1.6 | 3.2 | 0.20 | 1.85 | 1.85 | 93 | 1011.2 |
| 20260507101456 | 18 | 142 | 0.0 | 3.2 | 0.23 | 1.85 | 1.85 | 93 | 1011.2 |
| 20260507100957 | 18 | 142 | 3.2 | 3.2 | 0.20 | 1.83 | 1.83 | 93 | 1011.1 |
| 20260507100455 | 18 | 186 | 0.0 | 4.8 | 0.18 | 1.80 | 1.80 | 93 | 1011.1 |
| 20260507095959 | 18 | 140 | 3.2 | 6.4 | 0.15 | 1.78 | 1.78 | 93 | 1011.1 |
| 20260507095456 | 18 | 286 | 1.6 | 6.4 | 0.20 | 1.75 | 1.75 | 93 | 1011.1 |
| 20260507094956 | 18 | 184 | 1.6 | 6.4 | 0.28 | 1.75 | 1.75 | 93 | 1011.1 |
| 20260507093956 | 18 | 204 | 3.2 | 8.0 | 0.41 | 1.70 | 1.70 | 93 | 1010.9 |
| 20260507093456 | 18 | 130 | 3.2 | 11.3 | 0.48 | 1.68 | 1.68 | 93 | 1011.1 |
| 20260507092956 | 18 | 167 | 4.8 | 11.3 | 0.56 | 1.68 | 1.68 | 93 | 1011.2 |
| 20260507092456 | 18 | 175 | 3.2 | 11.3 | 0.58 | 1.65 | 1.65 | 93 | 1011.3 |
| 20260507091957 | 18 | 232 | 6.4 | 12.9 | 0.61 | 1.65 | 1.65 | 93 | 1011.1 |
| 20260507090956 | 18 | 186 | 6.4 | 9.7 | 0.58 | 1.63 | 1.63 | 94 | 1011.1 |
| 20260507090457 | 18 | 173 | 4.8 | 11.3 | 0.61 | 1.63 | 1.63 | 94 | 1011.1 |
| 20260507085958 | 18 | 221 | 6.4 | 11.3 | 0.61 | 1.63 | 1.63 | 94 | 1011.2 |
| 20260507085457 | 18 | 228 | 3.2 | 12.9 | 0.56 | 1.55 | 1.55 | 93 | 1011.6 |
| 20260507084456 | 18 | 188 | 6.4 | 20.9 | 0.41 | 1.40 | 1.40 | 93 | 1011.6 |
| 20260507083956 | 18 | 229 | 4.8 | 14.5 | 0.33 | 1.30 | 1.30 | 93 | 1012.0 |
| 20260507083456 | 18 | 188 | 6.4 | 14.5 | 0.23 | 1.19 | 1.19 | 93 | 1012.1 |
| 20260507082956 | 18 | 196 | 1.6 | 6.4 | 0.15 | 1.12 | 1.12 | 93 | 1012.1 |
| 20260507082456 | 18 | 196 | 3.2 | 6.4 | 0.10 | 1.07 | 1.07 | 93 | 1012.0 |
| 20260507081456 | 18 | 196 | 3.2 | 4.8 | 0.08 | 1.04 | 1.04 | 93 | 1011.6 |
| 20260507080956 | 18 | 196 | 3.2 | 6.4 | 0.08 | 1.04 | 1.04 | 93 | 1011.7 |
| 20260507080455 | 18 | 196 | 3.2 | 6.4 | 0.05 | 1.02 | 1.02 | 93 | 1011.8 |
| 20260507075958 | 18 | 174 | 1.6 | 6.4 | 0.05 | 1.02 | 1.02 | 93 | 1011.9 |
| 20260507074956 | 18 | 175 | 3.2 | 4.8 | 0.03 | 0.99 | 0.99 | 93 | 1011.6 |
| 20260507074456 | 18 | 175 | 3.2 | 4.8 | 0.03 | 0.99 | 0.99 | 93 | 1011.8 |
| 20260507073956 | 18 | 175 | 1.6 | 3.2 | 0.00 | 0.97 | 0.97 | 93 | 1011.8 |
| 20260507073456 | 18 | 175 | 3.2 | 3.2 | 0.00 | 0.97 | 0.97 | 92 | 1012.0 |
| 20260507072955 | 18 | 175 | 1.6 | 1.6 | 0.00 | 0.97 | 0.97 | 92 | 1012.0 |
| 20260507072458 | 18 | 175 | 0.0 | 0.0 | 0.00 | 0.97 | 0.97 | 92 | 1012.0 |
| 20260507070956 | 18 | 175 | 0.0 | 3.2 | 0.00 | 0.97 | 0.97 | 92 | 1012.4 |
| 20260507070456 | 18 | 175 | 1.6 | 3.2 | 0.03 | 0.97 | 0.97 | 92 | 1012.3 |
| 20260507065454 | 18 | 175 | 0.0 | 1.6 | 0.03 | 0.97 | 0.97 | 92 | 1012.5 |